Regional Weather Roundup
Issued by NWS Sioux Falls, SD

Home | Current Version | Previous Version | Text Only | Print | Product List | Glossary On
Versions: 1 2 3 4 5 6 7 8 9 10 11 12 13 14 15 16 17 18 19 20 21 22 23 24 25 26 27 28 29 30 31 32 33 34 35 36 37 38 39 40 41 42 43 44 45 46 47 48 49 50
000
ASUS43 KFSD 280602
RWRFSD

WEATHER ROUNDUP FOR SE SOUTH DAKOTA/SW MINNESOTA/NW IOWA
NATIONAL WEATHER SERVICE SIOUX FALLS SD
100 AM CDT SUN AUG 28 2016

NOTE: "FAIR" INDICATES FEW OR NO CLOUDS BELOW 12,000 FEET WITH NO
SIGNIFICANT WEATHER AND OR OBSTRUCTIONS TO VISIBILITY.


SDZ038>040-050-052>070-280700-
SOUTHEAST SOUTH DAKOTA

CITY           SKY/WX    TMP DP  RH WIND       PRES   REMARKS
BROOKINGS      FAIR      64  62  93 SE12      30.03F
CHAMBERLAIN    CLEAR     70  65  82 SE8       29.96R
6HR MIN TEMP:  69; 6HR MAX TEMP:  85;

HURON          PTCLDY    70  64  81 SE13      29.96S
6HR MIN TEMP:  69; 6HR MAX TEMP:  80;

MADISON        FAIR      64  64 100 S9        30.04S
MITCHELL       CLEAR     69  65  86 SE13      29.99S
6HR MIN TEMP:  69; 6HR MAX TEMP:  79;

SIOUX FALLS    FAIR      69  65  86 SE10      30.05R
6HR MIN TEMP:  68; 6HR MAX TEMP:  76;

WINNER         FAIR      74  64  71 S16       29.96S
YANKTON        FAIR      68  63  83 SE7       30.02S
$$

MNZ071-072-080-081-089-090-097-098-280700-
SOUTHWEST MINNESOTA

CITY           SKY/WX    TMP DP  RH WIND       PRES   REMARKS
FAIRMONT       FOG       59  58  96 CALM      30.09  VSB 1
JACKSON          N/A     61  59  94 SE3       30.10S FOG
LUVERNE        FAIR      59  57  94 CALM      30.07S FOG
MARSHALL       FAIR      61  60  97 SE7       30.06S
6HR MIN TEMP:  61; 6HR MAX TEMP:  74;

MONTEVIDEO     FAIR      61  61 100 S7        30.07R
PIPESTONE      FAIR      63  61  94 SE6       30.07R
REDWOOD FALLS  FAIR      61  59  93 SE6       30.06R
TRACY          FAIR      65  63  91 S10       30.07S
WINDOM         FAIR      63  61  94 S5        30.09S
WORTHINGTON    FAIR      59  58  96 E5        30.09S FOG
$$

IAZ001>003-012>014-020>022-031-032-NEZ013-014-SDZ071-280700-
NORTHWEST IOWA

CITY           SKY/WX    TMP DP  RH WIND       PRES   REMARKS
CHEROKEE       FAIR      62  62 100 CALM      30.08S
DENISON        FOG       68  66  94 CALM      30.06S VSB 3/4
ESTHERVILLE    FOG       56  56 100 CALM      30.09S VSB 3/4
LE MARS        FAIR      66  63  88 CALM      30.07S
ORANGE CITY    FAIR      63  63 100 CALM      30.07S
SHELDON        FAIR      61  61 100 SE6       30.06S
SIOUX CITY     FAIR      67  63  87 E7        30.05S
6HR MIN TEMP:  65; 6HR MAX TEMP:  78;

SPENCER        FAIR      58  57  97 CALM      30.09S
6HR MIN TEMP:  58; 6HR MAX TEMP:  73;

STORM LAKE     FAIR      64  64 100 S5        30.10R FOG
$$

ABBREVIATIONS USED IN REMARKS
   TC - TEMPERATURE IN CELSIUS
  WCI - WIND CHILL INDEX
   HX - HEAT INDEX
  VSB - VISIBILITY





USA.gov is the U.S. government's official web portal to all federal, state and local government web resources and services.